Location: Moscow
(38.8570°N, 84.2291°W)
Time: 16:14:46
(UTC+00:00)

Geosat FO - Pass Details

Date: 15 November 2025
Orbit: 362 x 448 km, 108.0° (Epoch: 06 December)

Event Time Altitude Azimuth Distance (km) Brightness Sun altitude
Exits shadow 23:20:22 - 134° (SE) 1,858 7.2 -11.4°
Reaches altitude 10° 23:21:32 10° 128° (SE) 1,363 6.5 -11.6°
Maximum altitude 23:24:11 35° 60° (ENE) 619 4.6 -12.1°
Drops below altitude 10° 23:26:48 10° 353° (N) 1,357 6.8 -12.6°
Sets 23:28:48 0° 344° (NNW) 2,207 7.9 -13.0°
